Time,TemperatureF,DewpointF,PressureIn,WindDirection,WindDirectionDegrees,WindSpeedMPH,WindSpeedGustMPH,Humidity,HourlyPrecipIn,Conditions,Clouds,dailyrainin,SolarRadiationWatts/m^2,SoftwareType,DateUTC
2013-09-13 00:00:00,69.8,-99.9,29.68,WSW,237,2.0,2.0,0,0.00,,,0.00,0,Wunderground v.1.15,2013-09-13 04:00:00,
2013-09-13 00:05:00,69.8,-99.9,29.68,SW,228,1.0,2.0,0,0.00,,,0.00,0,Wunderground v.1.15,2013-09-13 04:05:00,
2013-09-13 00:10:00,69.9,-99.9,29.68,SSW,211,2.0,4.0,0,0.00,,,0.00,0,Wunderground v.1.15,2013-09-13 04:10:00,
2013-09-13 00:20:00,69.7,-99.9,29.67,SW,221,4.0,4.0,0,0.00,,,0.00,0,Wunderground v.1.15,2013-09-13 04:20:00,
2013-09-13 00:25:00,69.6,-99.9,29.67,SW,221,4.0,5.0,0,0.00,,,0.00,0,Wunderground v.1.15,2013-09-13 04:25:00,
2013-09-13 00:30:00,69.6,-99.9,29.67,SW,232,3.0,3.0,0,0.00,,,0.00,0,Wunderground v.1.15,2013-09-13 04:30:00,
2013-09-13 00:40:00,69.4,-99.9,29.67,WSW,257,3.0,3.0,0,0.00,,,0.00,0,Wunderground v.1.15,2013-09-13 04:40:00,
2013-09-13 00:50:00,69.4,-99.9,29.67,WSW,254,2.0,2.0,0,0.00,,,0.00,0,Wunderground v.1.15,2013-09-13 04:50:00,
2013-09-13 01:00:00,69.5,-99.9,29.67,WSW,255,1.0,1.0,0,0.00,,,0.00,0,Wunderground v.1.15,2013-09-13 05:00:00,
2013-09-13 01:10:00,69.5,-99.9,29.66,WSW,255,1.0,1.0,0,0.00,,,0.00,0,Wunderground v.1.15,2013-09-13 05:10:00,
2013-09-13 01:20:00,69.6,-99.9,29.66,WSW,255,1.0,1.0,0,0.00,,,0.00,0,Wunderground v.1.15,2013-09-13 05:20:00,
2013-09-13 01:30:00,69.6,-99.9,29.65,WSW,255,1.0,1.0,0,0.00,,,0.00,0,Wunderground v.1.15,2013-09-13 05:30:00,
2013-09-13 01:40:00,69.5,-99.9,29.64,WSW,254,0.0,0.0,0,0.00,,,0.00,0,Wunderground v.1.15,2013-09-13 05:40:00,
2013-09-13 01:45:00,69.5,-99.9,29.64,WSW,255,0.0,0.0,0,0.00,,,0.00,0,Wunderground v.1.15,2013-09-13 05:45:00,
2013-09-13 01:55:00,69.2,-99.9,29.64,WSW,254,0.0,0.0,0,0.00,,,0.00,0,Wunderground v.1.15,2013-09-13 05:55:00,
2013-09-13 02:05:00,69.2,-99.9,29.63,WSW,254,0.0,0.0,0,0.00,,,0.00,0,Wunderground v.1.15,2013-09-13 06:05:00,
2013-09-13 02:10:00,69.2,-99.9,29.63,WSW,254,0.0,0.0,0,0.00,,,0.00,0,Wunderground v.1.15,2013-09-13 06:10:00,
2013-09-13 02:15:00,69.2,-99.9,29.63,WSW,255,0.0,0.0,0,0.00,,,0.00,0,Wunderground v.1.15,2013-09-13 06:15:00,
2013-09-13 02:25:00,69.4,-99.9,29.62,WSW,255,0.0,0.0,0,0.00,,,0.00,0,Wunderground v.1.15,2013-09-13 06:25:00,
2013-09-13 02:30:00,69.4,-99.9,29.62,WSW,255,0.0,0.0,0,0.00,,,0.00,0,Wunderground v.1.15,2013-09-13 06:30:00,
2013-09-13 02:35:00,69.3,-99.9,29.62,WSW,254,0.0,0.0,0,0.00,,,0.00,0,Wunderground v.1.15,2013-09-13 06:35:00,
2013-09-13 02:40:00,69.3,-99.9,29.61,WSW,254,0.0,0.0,0,0.00,,,0.00,0,Wunderground v.1.15,2013-09-13 06:40:00,
2013-09-13 02:50:00,69.3,-99.9,29.61,WSW,254,0.0,2.0,0,0.00,,,0.00,0,Wunderground v.1.15,2013-09-13 06:50:00,
2013-09-13 03:00:00,69.3,-99.9,29.61,WSW,255,0.0,0.0,0,0.00,,,0.00,0,Wunderground v.1.15,2013-09-13 07:00:00,
2013-09-13 03:10:00,69.3,-99.9,29.61,WSW,255,0.0,0.0,0,0.00,,,0.00,0,Wunderground v.1.15,2013-09-13 07:10:00,
2013-09-13 03:15:00,69.3,-99.9,29.61,WSW,254,0.0,0.0,0,0.00,,,0.00,0,Wunderground v.1.15,2013-09-13 07:15:00,
2013-09-13 03:20:00,69.4,-99.9,29.61,WSW,254,0.0,0.0,0,0.00,,,0.00,0,Wunderground v.1.15,2013-09-13 07:20:00,
2013-09-13 03:30:00,69.3,-99.9,29.61,WSW,255,0.0,0.0,0,0.00,,,0.00,0,Wunderground v.1.15,2013-09-13 07:30:00,
2013-09-13 03:40:00,69.3,-99.9,29.61,WSW,254,0.0,0.0,0,0.00,,,0.00,0,Wunderground v.1.15,2013-09-13 07:40:00,
2013-09-13 03:45:00,69.2,-99.9,29.61,WSW,254,0.0,0.0,0,0.00,,,0.00,0,Wunderground v.1.15,2013-09-13 07:45:00,
2013-09-13 03:50:00,69.1,-99.9,29.61,WSW,255,0.0,0.0,0,0.00,,,0.00,0,Wunderground v.1.15,2013-09-13 07:50:00,
2013-09-13 04:00:00,69.0,-99.9,29.61,WSW,255,0.0,0.0,0,0.00,,,0.00,0,Wunderground v.1.15,2013-09-13 08:00:00,
2013-09-13 04:10:00,69.0,-99.9,29.61,WSW,255,0.0,0.0,0,0.00,,,0.00,0,Wunderground v.1.15,2013-09-13 08:10:00,
2013-09-13 04:20:00,69.0,-99.9,29.60,WSW,254,0.0,0.0,0,0.00,,,0.00,0,Wunderground v.1.15,2013-09-13 08:20:00,
2013-09-13 04:25:00,68.8,-99.9,29.60,WSW,255,0.0,0.0,0,0.00,,,0.00,0,Wunderground v.1.15,2013-09-13 08:25:00,
2013-09-13 04:30:00,68.7,-99.9,29.60,WSW,254,0.0,0.0,0,0.00,,,0.00,0,Wunderground v.1.15,2013-09-13 08:30:00,
2013-09-13 04:40:00,68.5,-99.9,29.60,WSW,255,0.0,1.0,0,0.00,,,0.00,0,Wunderground v.1.15,2013-09-13 08:40:00,
2013-09-13 04:50:00,68.4,-99.9,29.60,WSW,255,1.0,1.0,0,0.00,,,0.00,0,Wunderground v.1.15,2013-09-13 08:50:00,
2013-09-13 05:00:00,68.3,-99.9,29.60,WSW,255,2.0,2.0,0,0.00,,,0.00,0,Wunderground v.1.15,2013-09-13 09:00:00,
2013-09-13 05:10:00,68.2,-99.9,29.60,WSW,255,2.0,4.0,0,0.00,,,0.00,0,Wunderground v.1.15,2013-09-13 09:10:00,
2013-09-13 05:15:00,68.2,-99.9,29.60,WSW,255,2.0,4.0,0,0.00,,,0.00,0,Wunderground v.1.15,2013-09-13 09:15:00,
2013-09-13 05:25:00,68.2,-99.9,29.61,West,265,2.0,4.0,0,0.00,,,0.00,0,Wunderground v.1.15,2013-09-13 09:25:00,
2013-09-13 05:35:00,68.3,-99.9,29.61,WNW,283,4.0,4.0,0,0.00,,,0.00,0,Wunderground v.1.15,2013-09-13 09:35:00,
2013-09-13 05:45:00,68.4,-99.9,29.61,WNW,294,5.0,7.0,0,0.00,,,0.00,0,Wunderground v.1.15,2013-09-13 09:45:00,
2013-09-13 05:55:00,68.4,-99.9,29.62,NW,305,4.0,5.0,0,0.00,,,0.00,0,Wunderground v.1.15,2013-09-13 09:55:00,
2013-09-13 06:05:00,68.5,-99.9,29.62,WNW,292,5.0,6.0,0,0.00,,,0.00,0,Wunderground v.1.15,2013-09-13 10:05:00,
2013-09-13 06:15:00,68.5,-99.9,29.62,NW,321,5.0,6.0,0,0.00,,,0.00,0,Wunderground v.1.15,2013-09-13 10:15:00,
2013-09-13 06:20:00,68.5,-99.9,29.62,NW,311,6.0,6.0,0,0.00,,,0.00,0,Wunderground v.1.15,2013-09-13 10:20:00,
2013-09-13 06:30:00,68.6,-99.9,29.61,WNW,296,5.0,5.0,0,0.00,,,0.00,0,Wunderground v.1.15,2013-09-13 10:30:00,
2013-09-13 06:40:00,68.6,-99.9,29.61,NW,311,2.0,4.0,0,0.00,,,0.00,0,Wunderground v.1.15,2013-09-13 10:40:00,
2013-09-13 06:45:00,68.7,-99.9,29.61,WNW,296,2.0,4.0,0,0.00,,,0.00,0,Wunderground v.1.15,2013-09-13 10:45:00,
2013-09-13 06:55:00,68.8,-99.9,29.62,NNW,331,5.0,6.0,0,0.00,,,0.00,0,Wunderground v.1.15,2013-09-13 10:55:00,
2013-09-13 07:00:00,68.9,-99.9,29.62,NNW,336,5.0,6.0,0,0.00,,,0.00,0,Wunderground v.1.15,2013-09-13 11:00:00,
2013-09-13 07:05:00,68.7,-99.9,29.62,NW,326,5.0,8.0,0,0.00,,,0.00,5,Wunderground v.1.15,2013-09-13 11:05:00,
2013-09-13 07:15:00,68.4,-99.9,29.62,North,351,5.0,8.0,0,0.00,,,0.01,7,Wunderground v.1.15,2013-09-13 11:15:00,
2013-09-13 07:25:00,68.2,-99.9,29.63,NW,322,4.0,5.0,0,0.00,,,0.01,14,Wunderground v.1.15,2013-09-13 11:25:00,
2013-09-13 07:35:00,68.3,-99.9,29.63,NW,326,3.0,4.0,0,0.04,,,0.02,19,Wunderground v.1.15,2013-09-13 11:35:00,
2013-09-13 07:45:00,68.3,-99.9,29.63,NW,326,2.0,4.0,0,0.00,,,0.02,33,Wunderground v.1.15,2013-09-13 11:45:00,
2013-09-13 07:55:00,68.5,-99.9,29.63,NNW,340,2.0,3.0,0,0.00,,,0.02,67,Wunderground v.1.15,2013-09-13 11:55:00,
2013-09-13 08:00:00,68.7,-99.9,29.63,NNW,336,3.0,3.0,0,0.00,,,0.02,72,Wunderground v.1.15,2013-09-13 12:00:00,
2013-09-13 08:10:00,68.9,-99.9,29.63,NW,319,2.0,4.0,0,0.00,,,0.02,72,Wunderground v.1.15,2013-09-13 12:10:00,
2013-09-13 08:20:00,69.1,-99.9,29.63,NW,320,2.0,2.0,0,0.00,,,0.02,95,Wunderground v.1.15,2013-09-13 12:20:00,
2013-09-13 08:30:00,69.4,-99.9,29.63,NW,320,1.0,2.0,0,0.00,,,0.02,107,Wunderground v.1.15,2013-09-13 12:30:00,
2013-09-13 08:40:00,69.5,-99.9,29.63,NW,310,2.0,4.0,0,0.00,,,0.02,121,Wunderground v.1.15,2013-09-13 12:40:00,
2013-09-13 08:50:00,69.6,-99.9,29.63,WNW,302,4.0,4.0,0,0.00,,,0.02,107,Wunderground v.1.15,2013-09-13 12:50:00,
2013-09-13 09:00:00,69.6,-99.9,29.63,NW,318,2.0,4.0,0,0.00,,,0.02,125,Wunderground v.1.15,2013-09-13 13:00:00,
2013-09-13 09:05:00,69.6,-99.9,29.63,NW,317,2.0,4.0,0,0.00,,,0.02,216,Wunderground v.1.15,2013-09-13 13:05:00,
2013-09-13 09:15:00,69.7,-99.9,29.63,NW,326,4.0,6.0,0,0.00,,,0.02,156,Wunderground v.1.15,2013-09-13 13:15:00,
2013-09-13 09:25:00,69.5,-99.9,29.63,NW,313,5.0,5.0,0,0.00,,,0.02,200,Wunderground v.1.15,2013-09-13 13:25:00,
2013-09-13 09:35:00,69.7,-99.9,29.63,NW,316,3.0,4.0,0,0.00,,,0.02,533,Wunderground v.1.15,2013-09-13 13:35:00,
2013-09-13 09:45:00,70.7,-99.9,29.63,NNW,336,4.0,8.0,0,0.00,,,0.02,570,Wunderground v.1.15,2013-09-13 13:45:00,
2013-09-13 09:55:00,72.3,-99.9,29.63,NNW,340,6.0,7.0,0,0.00,,,0.02,531,Wunderground v.1.15,2013-09-13 13:55:00,
2013-09-13 10:05:00,74.4,26.7,29.63,NW,320,5.0,8.0,17,0.00,,,0.02,624,Wunderground v.1.15,2013-09-13 14:05:00,
2013-09-13 10:10:00,74.8,41.3,29.63,NW,311,5.0,7.0,30,0.00,,,0.02,722,Wunderground v.1.15,2013-09-13 14:10:00,
2013-09-13 10:15:00,75.3,51.9,29.63,NW,326,5.0,7.0,44,0.00,,,0.02,650,Wunderground v.1.15,2013-09-13 14:15:00,
2013-09-13 10:25:00,75.4,57.6,29.63,NW,326,6.0,10.0,54,0.00,,,0.02,663,Wunderground v.1.15,2013-09-13 14:25:00,
2013-09-13 10:30:00,75.6,58.3,29.63,North,356,6.0,8.0,55,0.00,,,0.02,745,Wunderground v.1.15,2013-09-13 14:30:00,
2013-09-13 10:35:00,75.7,60.4,29.63,NNW,344,5.0,8.0,59,0.00,,,0.02,816,Wunderground v.1.15,2013-09-13 14:35:00,
2013-09-13 10:45:00,76.2,62.2,29.63,WNW,302,5.0,9.0,62,0.00,,,0.02,759,Wunderground v.1.15,2013-09-13 14:45:00,
2013-09-13 10:55:00,76.1,64.3,29.63,NW,313,6.0,6.0,67,0.00,,,0.02,779,Wunderground v.1.15,2013-09-13 14:55:00,
2013-09-13 11:05:00,76.2,64.9,29.63,NW,313,5.0,8.0,68,0.00,,,0.02,768,Wunderground v.1.15,2013-09-13 15:05:00,
2013-09-13 11:10:00,76.4,65.1,29.62,North,355,5.0,5.0,68,0.00,,,0.02,761,Wunderground v.1.15,2013-09-13 15:10:00,
2013-09-13 11:20:00,76.8,66.7,29.62,North,3,5.0,5.0,71,0.00,,,0.02,144,Wunderground v.1.15,2013-09-13 15:20:00,
2013-09-13 11:30:00,77.5,67.8,29.62,NW,307,3.0,6.0,72,0.00,,,0.02,120,Wunderground v.1.15,2013-09-13 15:30:00,
2013-09-13 11:40:00,77.5,67.8,29.62,NNW,331,5.0,5.0,72,0.00,,,0.02,780,Wunderground v.1.15,2013-09-13 15:40:00,
2013-09-13 11:45:00,78.4,68.6,29.62,NW,314,4.0,5.0,72,0.00,,,0.02,782,Wunderground v.1.15,2013-09-13 15:45:00,
2013-09-13 11:50:00,79.3,69.1,29.62,NW,309,3.0,3.0,71,0.00,,,0.02,770,Wunderground v.1.15,2013-09-13 15:50:00,
2013-09-13 12:00:00,80.3,69.2,29.62,NNW,342,2.0,5.0,69,0.00,,,0.02,795,Wunderground v.1.15,2013-09-13 16:00:00,
2013-09-13 12:10:00,80.1,69.0,29.62,NW,304,5.0,5.0,69,0.00,,,0.02,821,Wunderground v.1.15,2013-09-13 16:10:00,
2013-09-13 12:20:00,80.1,69.0,29.63,WSW,244,3.0,6.0,69,0.00,,,0.02,967,Wunderground v.1.15,2013-09-13 16:20:00,
2013-09-13 12:30:00,74.9,64.0,29.63,SW,225,8.0,12.0,69,0.00,,,0.02,728,Wunderground v.1.15,2013-09-13 16:30:00,
2013-09-13 12:35:00,73.9,59.1,29.63,WSW,256,9.0,12.0,60,0.00,,,0.02,991,Wunderground v.1.15,2013-09-13 16:35:00,
2013-09-13 12:45:00,74.0,52.5,29.62,SW,231,9.0,12.0,47,0.00,,,0.02,844,Wunderground v.1.15,2013-09-13 16:45:00,
2013-09-13 12:55:00,74.4,52.3,29.62,SW,222,9.0,11.0,46,0.00,,,0.02,584,Wunderground v.1.15,2013-09-13 16:55:00,
2013-09-13 13:00:00,74.0,51.9,29.62,SW,234,9.0,14.0,46,0.00,,,0.02,550,Wunderground v.1.15,2013-09-13 17:00:00,
2013-09-13 13:05:00,73.7,47.2,29.61,SW,214,10.0,14.0,39,0.00,,,0.02,478,Wunderground v.1.15,2013-09-13 17:05:00,
2013-09-13 13:15:00,73.5,46.3,29.61,SW,228,8.0,9.0,38,0.00,,,0.02,526,Wunderground v.1.15,2013-09-13 17:15:00,
2013-09-13 13:20:00,73.5,44.9,29.61,SW,214,8.0,13.0,36,0.00,,,0.02,526,Wunderground v.1.15,2013-09-13 17:20:00,
2013-09-13 13:30:00,74.1,43.9,29.61,SW,229,8.0,8.0,34,0.00,,,0.02,663,Wunderground v.1.15,2013-09-13 17:30:00,
2013-09-13 13:40:00,74.2,49.0,29.61,SW,236,8.0,8.0,41,0.00,,,0.02,476,Wunderground v.1.15,2013-09-13 17:40:00,
2013-09-13 13:50:00,74.9,54.4,29.60,SSW,210,9.0,10.0,49,0.00,,,0.02,896,Wunderground v.1.15,2013-09-13 17:50:00,
2013-09-13 14:00:00,74.8,57.0,29.60,SW,236,13.0,19.0,54,0.00,,,0.02,884,Wunderground v.1.15,2013-09-13 18:00:00,
2013-09-13 14:10:00,75.6,59.3,29.60,WSW,246,10.0,13.0,57,0.00,,,0.02,877,Wunderground v.1.15,2013-09-13 18:10:00,
2013-09-13 14:15:00,75.6,60.7,29.61,SSW,213,9.0,13.0,60,0.00,,,0.02,872,Wunderground v.1.15,2013-09-13 18:15:00,
2013-09-13 14:25:00,75.1,62.1,29.61,WSW,251,8.0,9.0,64,0.00,,,0.02,272,Wunderground v.1.15,2013-09-13 18:25:00,
2013-09-13 14:35:00,75.5,63.3,29.61,WNW,288,5.0,6.0,66,0.00,,,0.02,81,Wunderground v.1.15,2013-09-13 18:35:00,
2013-09-13 14:45:00,74.4,63.1,29.61,NW,326,4.0,6.0,68,0.00,,,0.02,195,Wunderground v.1.15,2013-09-13 18:45:00,
2013-09-13 14:55:00,74.8,63.9,29.61,NNW,331,2.0,5.0,69,0.00,,,0.02,204,Wunderground v.1.15,2013-09-13 18:55:00,
2013-09-13 15:05:00,75.0,65.0,29.61,WNW,300,5.0,8.0,71,0.00,,,0.02,74,Wunderground v.1.15,2013-09-13 19:05:00,
2013-09-13 15:10:00,74.5,64.5,29.61,WNW,290,8.0,8.0,71,0.00,,,0.02,69,Wunderground v.1.15,2013-09-13 19:10:00,
2013-09-13 15:20:00,73.5,62.3,29.61,NW,309,11.0,11.0,68,0.00,,,0.02,262,Wunderground v.1.15,2013-09-13 19:20:00,
2013-09-13 15:30:00,74.0,62.8,29.61,NW,314,9.0,14.0,68,0.00,,,0.02,301,Wunderground v.1.15,2013-09-13 19:30:00,
2013-09-13 15:40:00,74.7,63.9,29.61,WNW,294,8.0,8.0,69,0.00,,,0.02,670,Wunderground v.1.15,2013-09-13 19:40:00,
2013-09-13 15:50:00,75.8,66.1,29.61,NW,313,9.0,13.0,72,0.00,,,0.02,227,Wunderground v.1.15,2013-09-13 19:50:00,
2013-09-13 15:55:00,76.2,66.5,29.61,WNW,296,9.0,13.0,72,0.00,,,0.02,552,Wunderground v.1.15,2013-09-13 19:55:00,
2013-09-13 16:05:00,76.7,65.8,29.61,NNW,340,8.0,8.0,69,0.00,,,0.02,536,Wunderground v.1.15,2013-09-13 20:05:00,
2013-09-13 16:10:00,76.6,66.1,29.61,NW,316,9.0,12.0,70,0.00,,,0.02,169,Wunderground v.1.15,2013-09-13 20:10:00,
2013-09-13 16:20:00,77.1,66.1,29.61,WNW,294,8.0,8.0,69,0.00,,,0.02,476,Wunderground v.1.15,2013-09-13 20:20:00,
2013-09-13 16:30:00,77.2,65.0,29.61,NW,304,8.0,8.0,66,0.00,,,0.02,441,Wunderground v.1.15,2013-09-13 20:30:00,
2013-09-13 16:35:00,76.9,64.7,29.62,WNW,284,8.0,8.0,66,0.00,,,0.02,425,Wunderground v.1.15,2013-09-13 20:35:00,
2013-09-13 16:40:00,77.0,65.6,29.62,NW,321,9.0,9.0,68,0.00,,,0.02,410,Wunderground v.1.15,2013-09-13 20:40:00,
2013-09-13 16:50:00,76.7,65.3,29.62,NW,307,9.0,9.0,68,0.00,,,0.02,381,Wunderground v.1.15,2013-09-13 20:50:00,
2013-09-13 17:00:00,76.5,66.0,29.62,NNW,347,8.0,11.0,70,0.00,,,0.02,353,Wunderground v.1.15,2013-09-13 21:00:00,
2013-09-13 17:15:00,76.4,66.3,29.62,NW,319,7.0,10.0,71,0.00,,,0.02,309,Wunderground v.1.15,2013-09-13 21:15:00,
2013-09-13 17:25:00,76.6,66.1,29.62,NW,305,7.0,8.0,70,0.00,,,0.02,278,Wunderground v.1.15,2013-09-13 21:25:00,
2013-09-13 17:35:00,76.2,66.1,29.63,WNW,299,7.0,9.0,71,0.00,,,0.02,241,Wunderground v.1.15,2013-09-13 21:35:00,
2013-09-13 17:45:00,76.0,65.5,29.63,WNW,302,7.0,9.0,70,0.00,,,0.02,193,Wunderground v.1.15,2013-09-13 21:45:00,
2013-09-13 17:55:00,76.0,65.5,29.64,NW,306,5.0,5.0,70,0.00,,,0.02,151,Wunderground v.1.15,2013-09-13 21:55:00,
2013-09-13 18:05:00,76.1,66.0,29.64,West,271,5.0,7.0,71,0.00,,,0.02,111,Wunderground v.1.15,2013-09-13 22:05:00,
2013-09-13 18:15:00,75.0,65.0,29.65,WNW,292,6.0,6.0,71,0.00,,,0.02,19,Wunderground v.1.15,2013-09-13 22:15:00,
2013-09-13 18:25:00,72.9,63.7,29.66,NW,313,10.0,21.0,73,0.00,,,0.02,47,Wunderground v.1.15,2013-09-13 22:25:00,
2013-09-13 18:30:00,72.1,62.6,29.66,NNW,346,12.0,12.0,72,0.00,,,0.02,51,Wunderground v.1.15,2013-09-13 22:30:00,
2013-09-13 18:40:00,70.9,60.6,29.67,NW,326,10.0,13.0,70,0.00,,,0.02,18,Wunderground v.1.15,2013-09-13 22:40:00,
2013-09-13 18:50:00,70.1,59.9,29.67,NW,319,9.0,12.0,70,0.00,,,0.02,12,Wunderground v.1.15,2013-09-13 22:50:00,
2013-09-13 19:00:00,69.3,59.1,29.67,NNW,336,10.0,18.0,70,0.00,,,0.02,9,Wunderground v.1.15,2013-09-13 23:00:00,
2013-09-13 19:10:00,69.1,58.5,29.68,NNW,336,10.0,10.0,69,0.00,,,0.02,0,Wunderground v.1.15,2013-09-13 23:10:00,
2013-09-13 19:20:00,69.0,58.4,29.68,NNW,336,8.0,8.0,69,0.00,,,0.02,0,Wunderground v.1.15,2013-09-13 23:20:00,
2013-09-13 19:25:00,69.1,58.9,29.69,WNW,292,8.0,8.0,70,0.00,,,0.02,0,Wunderground v.1.15,2013-09-13 23:25:00,
2013-09-13 19:30:00,69.3,59.1,29.69,NW,319,7.0,15.0,70,0.00,,,0.02,0,Wunderground v.1.15,2013-09-13 23:30:00,
2013-09-13 19:40:00,69.5,58.9,29.69,NW,326,9.0,9.0,69,0.00,,,0.02,0,Wunderground v.1.15,2013-09-13 23:40:00,
2013-09-13 19:45:00,69.5,59.3,29.69,NW,326,9.0,11.0,70,0.00,,,0.02,0,Wunderground v.1.15,2013-09-13 23:45:00,
2013-09-13 19:50:00,69.3,59.9,29.70,North,1,9.0,9.0,72,0.00,,,0.02,0,Wunderground v.1.15,2013-09-13 23:50:00,
2013-09-13 20:00:00,69.2,60.2,29.70,NW,326,7.0,11.0,73,0.00,,,0.02,0,Wunderground v.1.15,2013-09-14 00:00:00,
2013-09-13 20:05:00,69.1,60.1,29.71,NNW,341,8.0,11.0,73,0.00,,,0.02,0,Wunderground v.1.15,2013-09-14 00:05:00,
2013-09-13 20:15:00,69.0,60.0,29.71,NW,326,9.0,12.0,73,0.00,,,0.02,0,Wunderground v.1.15,2013-09-14 00:15:00,
2013-09-13 20:25:00,68.6,59.6,29.72,North,2,9.0,11.0,73,0.00,,,0.02,0,Wunderground v.1.15,2013-09-14 00:25:00,
2013-09-13 20:35:00,68.3,59.3,29.72,NNW,341,8.0,9.0,73,0.00,,,0.02,0,Wunderground v.1.15,2013-09-14 00:35:00,
2013-09-13 20:45:00,68.0,59.4,29.73,NNW,345,9.0,13.0,74,0.00,,,0.02,0,Wunderground v.1.15,2013-09-14 00:45:00,
2013-09-13 20:50:00,67.8,59.2,29.73,NNW,341,11.0,12.0,74,0.00,,,0.02,0,Wunderground v.1.15,2013-09-14 00:50:00,
2013-09-13 21:00:00,67.6,59.0,29.73,North,358,9.0,9.0,74,0.00,,,0.02,0,Wunderground v.1.15,2013-09-14 01:00:00,
2013-09-13 21:10:00,67.4,58.8,29.73,NNE,15,9.0,9.0,74,0.00,,,0.02,0,Wunderground v.1.15,2013-09-14 01:10:00,
2013-09-13 21:20:00,67.0,58.4,29.74,NNW,340,10.0,10.0,74,0.00,,,0.02,0,Wunderground v.1.15,2013-09-14 01:20:00,
2013-09-13 21:30:00,66.8,58.2,29.74,North,355,9.0,9.0,74,0.00,,,0.02,0,Wunderground v.1.15,2013-09-14 01:30:00,
2013-09-13 21:35:00,66.6,58.1,29.74,NW,326,11.0,11.0,74,0.00,,,0.02,0,Wunderground v.1.15,2013-09-14 01:35:00,
2013-09-13 21:45:00,66.3,57.8,29.74,North,354,10.0,15.0,74,0.00,,,0.02,0,Wunderground v.1.15,2013-09-14 01:45:00,
2013-09-13 21:55:00,66.1,57.6,29.74,NNE,31,11.0,12.0,74,0.00,,,0.02,0,Wunderground v.1.15,2013-09-14 01:55:00,
2013-09-13 22:05:00,65.7,57.2,29.75,WNW,286,8.0,18.0,74,0.00,,,0.02,0,Wunderground v.1.15,2013-09-14 02:05:00,
2013-09-13 22:10:00,65.6,57.1,29.75,North,350,10.0,10.0,74,0.00,,,0.02,0,Wunderground v.1.15,2013-09-14 02:10:00,
2013-09-13 22:15:00,65.5,57.0,29.75,North,7,10.0,18.0,74,0.00,,,0.02,0,Wunderground v.1.15,2013-09-14 02:15:00,
2013-09-13 22:25:00,65.3,56.8,29.76,North,1,10.0,19.0,74,0.00,,,0.02,0,Wunderground v.1.15,2013-09-14 02:25:00,
2013-09-13 22:35:00,65.0,56.5,29.76,North,350,12.0,12.0,74,0.00,,,0.02,0,Wunderground v.1.15,2013-09-14 02:35:00,
2013-09-13 22:45:00,64.8,55.9,29.76,NW,317,10.0,12.0,73,0.00,,,0.02,0,Wunderground v.1.15,2013-09-14 02:45:00,
2013-09-13 22:55:00,64.6,55.7,29.77,NW,317,8.0,14.0,73,0.00,,,0.02,0,Wunderground v.1.15,2013-09-14 02:55:00,
2013-09-13 23:00:00,64.4,55.2,29.77,North,355,8.0,8.0,72,0.00,,,0.02,0,Wunderground v.1.15,2013-09-14 03:00:00,
2013-09-13 23:10:00,64.2,55.4,29.76,NNW,340,11.0,11.0,73,0.00,,,0.02,0,Wunderground v.1.15,2013-09-14 03:10:00,
2013-09-13 23:20:00,64.0,55.2,29.77,North,359,10.0,10.0,73,0.00,,,0.02,0,Wunderground v.1.15,2013-09-14 03:20:00,
2013-09-13 23:30:00,63.8,54.6,29.77,NNW,347,8.0,8.0,72,0.00,,,0.02,0,Wunderground v.1.15,2013-09-14 03:30:00,
2013-09-13 23:40:00,63.6,54.4,29.77,NNW,336,9.0,15.0,72,0.00,,,0.02,0,Wunderground v.1.15,2013-09-14 03:40:00,
2013-09-13 23:50:00,63.6,54.8,29.77,NNW,344,9.0,9.0,73,0.00,,,0.02,0,Wunderground v.1.15,2013-09-14 03:50:00,